Terminal Aerodrome Forecast
Issued by NWS

Current Version | Previous Version | Graphics & Text | Print | Product List | Glossary On
Versions: 1 2 3 4 5 6 7 8 9 10 11 12 13 14 15
000
FTUS41 KPBZ 221725
TAFMGW
TAF
KMGW 221725Z 2218/2318 26010G18KT P6SM BKN080
     FM222200 28008G16KT P6SM SCT070
     FM230100 34003KT P6SM SKC=

USA.gov is the U.S. government's official web portal to all federal, state and local government web resources and services.